This demonstration page uses our WeatherBlox Daily Observations layout. Learn more.

Left ArrowRight Arrow

41.86663, -103.66717

Hourly Observations for September 26, 2018

Temp ( °F °C ) Dew Point ( °F °C ) Humidity (%) Winds ( mph kmh ) Pressure ( in mb ) Visibility ( mi km ) Precip ( " mm )
12:53 am 00:53 Clear 38 3.3 35 1.7 89 89 NNE 5 7 30.30 1026 10 16 N/A
1:53 am 01:53 Clear 34 1.1 34 1.1 100 100 NNW 7 11 30.29 1026 10 16 N/A
2:53 am 02:53 Clear 35 1.7 34 1.1 96 96 N N/A 30.28 1025 10 16 N/A
3:53 am 03:53 Clear 33 0.6 32 undefined 96 96 NW 6 9 30.28 1026 10 16 N/A
4:53 am 04:53 Clear 32 undefined 32 undefined 100 100 NNW 5 7 30.29 1026 10 16 N/A
5:53 am 05:53 Clear 33 0.6 32 undefined 96 96 N N/A 30.28 1026 10 16 N/A
6:53 am 06:53 Sunny 31 -0.6 30 -1.1 96 96 N 3 6 30.31 1026 10 16 N/A
7:53 am 07:53 Sunny 37 2.8 34 1.1 89 89 N N/A 30.30 1026 10 16 N/A
8:53 am 08:53 Sunny 44 6.7 37 2.8 76 76 N N/A 30.28 1025 10 16 N/A
9:53 am 09:53 Sunny 52 11.1 37 2.8 57 57 ESE 7 11 30.24 1024 10 16 N/A
10:53 am 10:53 Sunny 60 15.6 38 3.3 44 44 SSE 10 17 30.19 1022 10 16 N/A
11:53 am 11:53 Sunny 68 20 36 2.2 31 31 SSW 9 15 30.14 1021 10 16 N/A
12:53 pm 12:53 Sunny 73 22.8 34 1.1 24 24 SSW 10 17 30.07 1018 10 16 N/A
1:53 pm 13:53 Sunny 76 24.4 29 -1.7 18 18 VRB 6 9 30.02 1017 10 16 N/A
2:53 pm 14:53 Sunny 77 25 24 -4.4 14 14 VRB 5 7 29.98 1015 10 16 N/A
3:53 pm 15:53 Sunny 77 25 25 -3.9 14 14 N N/A 29.96 1015 10 16 N/A
4:53 pm 16:53 Sunny 77 25 26 -3.3 15 15 N N/A 29.93 1014 10 16 N/A
5:53 pm 17:53 Sunny 73 22.8 31 -0.6 21 21 NE 5 7 29.96 1014 10 16 N/A
6:53 pm 18:53 Clear 67 19.4 33 0.6 28 28 ENE 9 15 29.98 1015 10 16 N/A
7:53 pm 19:53 Clear 62 16.7 34 1.1 35 35 NE 10 17 29.99 1016 10 16 N/A
8:53 pm 20:53 Clear 61 16.1 37 2.8 41 41 ENE 9 15 29.97 1015 10 16 N/A
9:53 pm 21:53 Clear 58 14.4 36 2.2 44 44 N N/A 29.98 1015 10 16 N/A
10:53 pm 22:53 Clear 56 13.3 39 3.9 53 53 N 3 6 29.97 1015 10 16 N/A
11:53 pm 23:53 Clear 53 11.7 39 3.9 59 59 NNW 5 7 29.97 1015 10 16 N/A

Powered by AerisWeather